[[{"header":{"parameterUnit":"m.s-1","parameterCategory":1,"la1":30.2991,"la2":30.254,"lo1":-89.0895,"lo2":-89.0444,"dy":0.0017,"dx":0.0017,"nx":28,"ny":28,"refTime":"2024-10-03T21:00:00:Z","depth":0,"parameterNumber":2,"parameterNumberName":"U-component_of_WINDS"},"data":[0,0,0,0,0,0,0,0,0,0,0,0,0,0,0,0,0,0,0,0,0,0,0,0,0,0,0,0,0,0,0,0,0,0,0,0,0,0,0,0,0,0,0,0,0,0,0,0,0,0,0,0,0,0,0,0,0,0,-4.423,-4.423,0,-4.4283,-4.4284,-4.4284,-4.423,-4.4228,-4.4226,-4.4224,-4.4281,-4.4284,-4.4288,0,0,0,0,0,0,0,0,0,0,0,0,0,-4.4084,-4.4087,-4.423,-4.4231,-4.4231,-4.4283,-4.4284,-4.4284,-4.4231,-4.4228,-4.4225,-4.4223,-4.428,-4.4284,-4.4288,0,0,0,0,0,0,0,0,0,0,0,0,0,-4.4144,-4.4088,-4.423,-4.4211,-4.4209,-4.4283,-4.4284,-4.4285,-4.4231,-4.4228,-4.4225,-4.4222,-4.4278,-4.4283,-4.4288,-4.4384,0,0,-4.4304,-4.4307,0,0,0,0,0,0,0,0,-4.414,-4.4149,-4.4213,-4.4212,-4.4211,-4.4247,-4.4253,-4.4318,-4.4232,-4.4223,-4.4224,-4.422,-4.4272,-4.4278,-4.4295,-4.4387,-4.4389,-4.4305,-4.4308,-4.431,-4.4312,0,0,0,0,0,0,0,-4.4136,-4.4146,-4.4251,-4.4214,-4.4213,-4.42,-4.4205,-4.4265,-4.4265,-4.4223,-4.422,-4.4227,-4.4271,-4.429,-4.4296,-4.439,-4.4305,-4.4309,-4.4313,-4.4315,-4.4564,-4.4568,0,0,0,0,0,0,-4.4134,-4.4143,-4.4249,-4.4252,-4.4167,-4.4205,-4.4211,-4.4238,-4.4264,-4.4265,-4.4229,-4.4224,-4.4282,-4.429,-4.4297,-4.4412,-4.431,-4.4315,-4.4318,-4.4561,-4.4565,-4.4569,0,0,0,0,0,0,-4.4131,-4.4144,-4.4247,-4.4197,-4.4209,-4.4211,-4.4243,-4.4241,-4.426,-4.4268,-4.4268,-4.4248,-4.428,-4.429,-4.4363,-4.4413,-4.4317,-4.4322,-4.4557,-4.4562,-4.4567,-4.4641,0,0,0,0,0,0,-4.4127,-4.4143,-4.4179,-4.4198,-4.4212,-4.4311,-4.4246,-4.4244,-4.4269,-4.4262,-4.4286,-4.4287,-4.4278,-4.4355,-4.4368,-4.4418,-4.4326,-4.4552,-4.4559,-4.4565,-4.4634,-4.4648,-4.466,0,0,0,0,0,-4.4122,-4.4198,-4.4181,-4.4194,-4.4257,-4.4314,-4.4322,-4.431,-4.4273,-4.4309,-4.4315,-4.4286,-4.4405,-4.4363,-4.4377,-4.443,-4.4549,-4.4557,-4.4565,-4.4628,-4.4645,-4.466,0,0,0,0,0,0,-4.4185,-4.42,-4.4181,-4.4266,-4.4289,-4.4305,-4.4351,-4.4328,-4.4363,-4.4356,-4.434,-4.4346,-4.4424,-4.4434,-4.4387,-4.4524,-4.4471,-4.4482,-4.4515,-4.4531,-4.4544,-4.454,-4.4331,0,0,0,0,0,-4.4209,-4.4254,-4.4265,-4.4338,-4.4351,-4.4349,-4.4373,-4.4362,-4.4386,-4.4396,-4.4406,-4.4431,-4.4474,-4.4503,-4.4543,-4.4635,-4.464,-4.4678,-4.4691,-4.4702,-4.4712,-4.4762,-4.478,-4.4595,-4.4595,-4.4594,0,0,-4.4259,-4.4272,-4.4302,-4.4351,-4.4368,-4.4416,-4.4357,-4.441,-4.4446,-4.4404,-4.4473,-4.4482,-4.4509,-4.4592,-4.4629,-4.4603,-4.4764,-4.4712,-4.472,-4.4724,-4.4772,-4.479,-4.4805,-4.46,-4.4599,-4.4598,0,0,-4.4374,-4.4388,-4.4451,-4.4469,-4.4495,-4.4493,-4.4508,-4.4528,-4.4532,-4.4601,-4.4571,-4.4613,-4.4687,-4.4708,-4.4728,-4.4851,-4.4827,-4.4865,-4.4933,-4.4983,-4.4997,-4.501,-4.5055,-4.5071,-4.4875,-4.4875,-4.4875,0,-4.4433,-4.4502,-4.4487,-4.4542,-4.4565,-4.4528,-4.4593,-4.4611,-4.4649,-4.4666,-4.4636,-4.4728,-4.4744,-4.4832,-4.4862,-4.4879,-4.4897,-4.4863,-4.4996,-4.5009,-4.5021,-4.5064,-4.5081,-4.4879,-4.4879,-4.4878,-4.4878,0,-4.4574,-4.4623,-4.4671,-4.4708,-4.4736,-4.4795,-4.479,-4.482,-4.4806,-4.4808,-4.488,-4.4897,-4.494,-4.496,-4.4947,-4.5047,-4.503,-4.4998,-4.4945,-4.5043,-4.5083,-4.5099,-4.4886,-4.4884,-4.4883,-4.4882,0,0,-4.4731,-4.4758,-4.4776,-4.4793,-4.4818,-4.4857,-4.4915,-4.4956,-4.4983,-4.5011,-4.506,-4.5124,-4.5095,-4.5118,-4.5107,-4.515,-4.5248,-4.5113,-4.5114,-4.5139,-4.536,-4.5385,-4.5404,-4.5231,-4.5235,-4.5237,-4.5358,0,-4.4847,-4.4947,-4.4935,-4.5031,-4.5077,-4.5043,-4.5094,-4.5116,-4.5119,-4.5159,-4.5162,-4.5208,-4.5166,-4.518,-4.5221,-4.5227,-4.5293,-4.5218,-4.5279,-4.5281,-4.5274,-4.5424,-4.545,-4.5564,-4.5374,-4.5376,-4.5378,0,-4.4996,-4.5028,-4.5129,-4.5149,-4.5167,-4.5213,-4.5251,-4.5289,-4.5313,-4.5313,-4.5339,-4.532,-4.538,-4.5325,-4.5407,-4.5357,-4.5381,-4.5388,-4.5392,-4.5398,-4.5336,-4.5436,-4.56,-4.5617,-4.5402,-4.5401,-4.5399,0,-4.5102,-4.5171,-4.524,-4.5255,-4.5279,-4.5312,-4.5324,-4.5345,-4.5371,-4.5404,-4.5421,-4.5461,-4.5483,-4.5515,-4.5508,-4.5468,-4.5593,-4.5537,-4.5595,-4.5596,-4.5624,-4.5623,-4.5796,-4.5638,-4.5637,-4.5637,-4.5637,0,-4.5234,-4.5297,-4.5288,-4.5331,-4.5401,-4.5386,-4.5456,-4.5464,-4.5483,-4.5528,-4.5501,-4.5543,-4.5531,-4.5574,-4.5569,-4.5639,-4.5649,-4.5651,-4.5649,-4.5654,-4.5654,-4.567,-4.5663,-4.5642,-4.5641,-4.564,-4.5639,0,-4.5364,-4.536,-4.5434,-4.545,-4.5456,-4.5507,-4.5522,-4.5563,-4.5563,-4.562,-4.5633,-4.5635,-4.5683,-4.568,-4.5734,-4.5731,-4.5818,-4.5806,-4.581,-4.5808,-4.5867,-4.5862,-4.6057,-4.6083,-4.5907,-4.5909,-4.591,0,-4.5449,-4.5497,-4.5518,-4.5546,-4.556,-4.5604,-4.563,-4.5618,-4.5647,-4.5679,-4.5716,-4.5762,-4.5798,-4.5878,-4.5885,-4.5927,-4.5917,-4.5982,-4.5923,-4.5927,-4.5919,-4.5917,-4.5923,-4.5994,-4.5996,-4.5998,-4.5999,0,-4.56,-4.5596,-4.5635,-4.5673,-4.5705,-4.5735,-4.5761,-4.5786,-4.5776,-4.581,-4.5859,-4.5887,-4.5943,-4.5989,-4.603,-4.6043,-4.6021,-4.6018,-4.6034,-4.604,-4.6041,-4.6042,-4.5843,-4.6014,-4.6012,-4.6011,-4.601,-4.601,-4.5711,-4.5753,-4.5774,-4.5818,-4.5837,-4.5863,-4.5903,-4.5908,-4.5949,-4.5993,-4.5983,-4.6039,-4.6063,-4.6114,-4.6131,-4.6175,-4.6152,-4.6175,-4.6181,-4.6187,-4.6195,-4.6032,-4.6182,-4.6182,-4.6182,-4.6181,-4.6181,0,-4.5863,-4.5875,-4.5915,-4.5954,-4.5989,-4.5963,-4.5992,-4.6023,-4.6072,-4.6096,-4.6132,-4.6189,-4.6234,-4.6245,-4.6288,-4.6322,-4.6313,-4.6334,-4.6332,-4.6335,-4.6212,-4.6195,-4.634,-4.634,-4.634,-4.634,-4.634,-4.634,-4.5945,-4.6014,-4.6013,-4.6091,-4.6103,-4.6156,-4.6175,-4.6199,-4.6218,-4.6283,-4.632,-4.6326,-4.6345,-4.639,-4.6431,-4.6433,-4.6451,-4.6476,-4.6475,-4.636,-4.6344,-4.6329,-4.6312,-4.648,-4.648,-4.6594,-4.6595,-4.6596]},{"header":{"parameterUnit":"m.s-1","parameterCategory":1,"la1":30.2991,"la2":30.254,"lo1":-89.0895,"lo2":-89.0444,"dy":0.0017,"dx":0.0017,"nx":28,"ny":28,"refTime":"2024-10-03T21:00:00:Z","depth":0,"parameterNumber":3,"parameterNumberName":"V-component_of_WINDS"},"data":[0,0,0,0,0,0,0,0,0,0,0,0,0,0,0,0,0,0,0,0,0,0,0,0,0,0,0,0,0,0,0,0,0,0,0,0,0,0,0,0,0,0,0,0,0,0,0,0,0,0,0,0,0,0,0,0,0,0,-2.4463,-2.4462,0,-2.4391,-2.439,-2.439,-2.4329,-2.4329,-2.4328,-2.4327,-2.4252,-2.4251,-2.4249,0,0,0,0,0,0,0,0,0,0,0,0,0,-2.4545,-2.4544,-2.4463,-2.4462,-2.4461,-2.4391,-2.439,-2.4389,-2.4329,-2.4329,-2.4328,-2.4327,-2.4253,-2.4251,-2.4249,0,0,0,0,0,0,0,0,0,0,0,0,0,-2.4495,-2.4544,-2.4463,-2.4423,-2.4418,-2.4392,-2.439,-2.4389,-2.433,-2.4329,-2.4328,-2.4327,-2.4253,-2.4251,-2.4249,-2.4256,0,0,-2.4243,-2.4242,0,0,0,0,0,0,0,0,-2.4498,-2.4492,-2.443,-2.4425,-2.4421,-2.4368,-2.4392,-2.4344,-2.433,-2.4363,-2.4327,-2.4326,-2.4291,-2.4286,-2.4275,-2.4252,-2.4249,-2.4242,-2.4241,-2.424,-2.424,0,0,0,0,0,0,0,-2.4502,-2.4495,-2.4434,-2.4429,-2.4423,-2.4408,-2.4399,-2.4382,-2.4334,-2.436,-2.4356,-2.4348,-2.4289,-2.4277,-2.4273,-2.4248,-2.4243,-2.4241,-2.4239,-2.4239,-2.4227,-2.4228,0,0,0,0,0,0,-2.4511,-2.4498,-2.4437,-2.4432,-2.4458,-2.4407,-2.4398,-2.4386,-2.4334,-2.4325,-2.4349,-2.4346,-2.4281,-2.4275,-2.427,-2.4274,-2.424,-2.4238,-2.4237,-2.4226,-2.4227,-2.4228,0,0,0,0,0,0,-2.4514,-2.4507,-2.444,-2.4464,-2.4454,-2.4407,-2.4394,-2.4385,-2.4373,-2.4325,-2.4316,-2.4346,-2.428,-2.4273,-2.426,-2.4271,-2.4237,-2.4236,-2.4225,-2.4226,-2.4228,-2.4283,0,0,0,0,0,0,-2.4516,-2.4508,-2.451,-2.4464,-2.4453,-2.4432,-2.4395,-2.4384,-2.437,-2.4365,-2.432,-2.4312,-2.4279,-2.4263,-2.4258,-2.4267,-2.4234,-2.4224,-2.4225,-2.4227,-2.428,-2.4286,-2.4291,0,0,0,0,0,-2.4519,-2.4528,-2.4511,-2.4504,-2.4455,-2.4432,-2.4426,-2.4388,-2.4371,-2.4373,-2.4342,-2.4313,-2.427,-2.4262,-2.4256,-2.4265,-2.4223,-2.4225,-2.4227,-2.4277,-2.4285,-2.4291,0,0,0,0,0,0,-2.4576,-2.4521,-2.4501,-2.4496,-2.4469,-2.4422,-2.4423,-2.4397,-2.4374,-2.437,-2.4324,-2.4315,-2.4307,-2.4284,-2.4276,-2.4268,-2.4243,-2.4244,-2.4283,-2.429,-2.4296,-2.4301,-2.4232,0,0,0,0,0,-2.4588,-2.4574,-2.4527,-2.4527,-2.4515,-2.4472,-2.446,-2.4434,-2.4404,-2.4392,-2.436,-2.4332,-2.4312,-2.43,-2.4279,-2.4276,-2.4266,-2.4279,-2.4285,-2.429,-2.4291,-2.4288,-2.4294,-2.4235,-2.4235,-2.4235,0,0,-2.4612,-2.4581,-2.4575,-2.4537,-2.4514,-2.45,-2.4462,-2.445,-2.4439,-2.439,-2.4376,-2.4352,-2.4317,-2.4309,-2.4304,-2.429,-2.4305,-2.4293,-2.4297,-2.4295,-2.4291,-2.4297,-2.4302,-2.4236,-2.4236,-2.4236,0,0,-2.4649,-2.4624,-2.4621,-2.4599,-2.4563,-2.4535,-2.4534,-2.4491,-2.4473,-2.4459,-2.4422,-2.4408,-2.4374,-2.4351,-2.4335,-2.4364,-2.4337,-2.4358,-2.4388,-2.4386,-2.4391,-2.4395,-2.4405,-2.441,-2.436,-2.436,-2.436,0,-2.4684,-2.4662,-2.4623,-2.4613,-2.4597,-2.4553,-2.4549,-2.4529,-2.4488,-2.4478,-2.4463,-2.4421,-2.4394,-2.4381,-2.4388,-2.4376,-2.4374,-2.4363,-2.4394,-2.4397,-2.44,-2.441,-2.4414,-2.4363,-2.4363,-2.4362,-2.4362,0,-2.4706,-2.4692,-2.4694,-2.4657,-2.4642,-2.4635,-2.4594,-2.4583,-2.4558,-2.4531,-2.4516,-2.4483,-2.4455,-2.4449,-2.4424,-2.4432,-2.4425,-2.4402,-2.4376,-2.4409,-2.4418,-2.4421,-2.4367,-2.4366,-2.4365,-2.4365,0,0,-2.4777,-2.4719,-2.472,-2.4703,-2.4661,-2.4649,-2.464,-2.4613,-2.4605,-2.4578,-2.4569,-2.4542,-2.4521,-2.4503,-2.4475,-2.4473,-2.4498,-2.445,-2.4449,-2.4461,-2.4505,-2.4523,-2.4528,-2.448,-2.448,-2.4481,-2.4508,0,-2.4808,-2.479,-2.4754,-2.4748,-2.4734,-2.4692,-2.4684,-2.4657,-2.4631,-2.4615,-2.4586,-2.4568,-2.4542,-2.4531,-2.4527,-2.4496,-2.4507,-2.4494,-2.4471,-2.447,-2.4481,-2.4532,-2.455,-2.4578,-2.4511,-2.4512,-2.4512,0,-2.4841,-2.4819,-2.4811,-2.477,-2.4763,-2.4757,-2.4729,-2.4715,-2.4683,-2.4664,-2.4645,-2.4614,-2.4601,-2.4577,-2.4559,-2.4551,-2.4539,-2.4523,-2.4523,-2.452,-2.4494,-2.453,-2.4586,-2.4591,-2.4517,-2.4516,-2.4516,0,-2.4894,-2.4861,-2.4852,-2.4839,-2.4791,-2.4788,-2.4767,-2.4735,-2.4721,-2.4697,-2.4687,-2.4661,-2.4647,-2.4628,-2.4591,-2.4577,-2.4577,-2.455,-2.4561,-2.4562,-2.4563,-2.4564,-2.4619,-2.4556,-2.4556,-2.4556,-2.4556,0,-2.4932,-2.4929,-2.4876,-2.487,-2.4865,-2.4824,-2.482,-2.4796,-2.4767,-2.4756,-2.4717,-2.4707,-2.4659,-2.4643,-2.4614,-2.4604,-2.4598,-2.4582,-2.4575,-2.4586,-2.4588,-2.4578,-2.4575,-2.4557,-2.4556,-2.4556,-2.4556,0,-2.499,-2.4954,-2.4942,-2.4898,-2.4887,-2.4885,-2.4847,-2.484,-2.4812,-2.4798,-2.4793,-2.4749,-2.4728,-2.469,-2.4658,-2.4638,-2.4634,-2.4621,-2.4646,-2.4641,-2.4655,-2.4654,-2.4705,-2.471,-2.4644,-2.4645,-2.4645,0,-2.5017,-2.5014,-2.497,-2.496,-2.4942,-2.4926,-2.4912,-2.4871,-2.4858,-2.4822,-2.4819,-2.4796,-2.4775,-2.4744,-2.4709,-2.4685,-2.467,-2.469,-2.4666,-2.4678,-2.4671,-2.4672,-2.4671,-2.4695,-2.4696,-2.4697,-2.4698,0,-2.5069,-2.5051,-2.5033,-2.5009,-2.4993,-2.4972,-2.4948,-2.4942,-2.4895,-2.4882,-2.4862,-2.4846,-2.4814,-2.4791,-2.4762,-2.474,-2.4711,-2.4705,-2.4707,-2.4718,-2.4733,-2.4726,-2.466,-2.4704,-2.4704,-2.4703,-2.4703,-2.4703,-2.5112,-2.5107,-2.5076,-2.5057,-2.5035,-2.5014,-2.5005,-2.4977,-2.4959,-2.4931,-2.4907,-2.4888,-2.4856,-2.4814,-2.4794,-2.4779,-2.4765,-2.4767,-2.4767,-2.4769,-2.4773,-2.4736,-2.4773,-2.4773,-2.4772,-2.4772,-2.4772,0,-2.5162,-2.5139,-2.5122,-2.5091,-2.5076,-2.5051,-2.5024,-2.5013,-2.4997,-2.497,-2.4951,-2.4927,-2.4905,-2.4868,-2.4843,-2.4837,-2.4824,-2.4832,-2.4832,-2.4828,-2.4787,-2.4788,-2.4844,-2.4844,-2.4844,-2.4844,-2.4844,-2.4844,-2.5186,-2.5177,-2.5156,-2.5135,-2.5113,-2.5095,-2.5081,-2.5062,-2.504,-2.5015,-2.4997,-2.4974,-2.4943,-2.4915,-2.4894,-2.4884,-2.4876,-2.4889,-2.4875,-2.4837,-2.4831,-2.4824,-2.4825,-2.4888,-2.4888,-2.4917,-2.4917,-2.4917]}]]